STARLINK-2103, 47383

Orbit data source: Space-Track

STARLINK-2103, 47383 is a payload satellite owned by SpaceX/Seattle (US) in LEO that was launched on Wed, 20 Jan 2021 UTC via an FALCON 9 launch vehicle from the Air Force Eastern Test Range (AFETR). Payload-class satellites include a variety of spacecraft equipped with specific instruments for various scientific and technological missions. These include communications satellites like Starlink; space stations such as the ISS; scientific satellites like the Hubble; Earth observation satellites from companies like Planet Labs, Umbra, and HawkEye 360; GPS; miniature CubeSats for education and research; and military/defense satellites.

Loading next visibility...
Identifier
47383, 2021-005AL
Orbit
LEO
Country
Flag of USUS
Related business
Manufacturer
SpaceX/Seattle
Mission
Partially operational Commercial Communications
Bus & Motor
STARLINK, Unknown motor
Mass
260 kg wet, ~248 kg dry
Launch date (UTC)
2021-01-20 (5 years ago)
Launch vehicle
FALCON 9
Launch site
Air Force Eastern Test Range (AFETR)
Object type
Payload
Rocket body
Debris
Shape & HBR
Box + 1 Pan, 10.1 m
Radar Cross Section
13.562 m², Large (>1 m²)

Expand to show TLE details & history
Last TLE update: 3 days ago

TLE from 3 days ago
0 STARLINK-2103
1 47383U 21005AL  26170.56869906  .00049935  00000-0  14380-2 0  9996
2 47383  53.1566 259.7714 0004238 343.5840  16.5025 15.35283327299336
Epoch: 2026-06-19T13:38Z
TLE epoch observation values (Epoch: 2026-06-19T13:38:55.598Z)
Latitude
-0.00004°
Longitude
147.24391°
Altitude
458.202 km
Speed
7.64 km/s
True Right ascension
17h 19m 05s
True Declination
0° 00' 00"
Sunlit
Object was in full shadow at epoch
Visualization orbit readout
Latitude
Unknown
Longitude
Unknown
Altitude
Unknown
Speed
Unknown
Apparent Right ascension
Unknown
Apparent Declination
Unknown
Sunlit
N/A
Visualization observer readout
Local Sidereal Time
21:54:31
Azimuth
Unknown
Elevation
Unknown
Doppler factor
Unknown
Orbital elements
Apogee altitude
463.235 km
Perigee altitude
457.438 km
Semi-major axis
6,838.474 km
Eccentricity
0.00042
Inclination
53.1566°
RAAN
259.7714°
Arg. of periapsis
343.584°
True anomaly
16.5163°
Mean anomaly
16.5025°
Eccentric anomaly
16.5094°
Mean motion
3.838 °/min
Orbital period
93.8 mins
BSTAR
0.001438
Loading maneuver chart data...
Computing Atmospheric mass density...

Documentation

Showing up to 5 results
|